Home   Weather   Salamanca   Past weeks
Flag for Spain

Past Weather in Salamanca, Spain — Yesterday and Last 2 Weeks

Now
88 °F

Passing clouds.


Feels Like: 85 °F
Forecast: 89 / 59 °F
Wind: 5 mph from East

Location: Salamanca / Matacan

Current Time: Jul 16, 2019 at 3:15:46 pm

Latest Report: Jul 16, 2019 at 2:30 pm


Visibility: N/A

Pressure: 29.98 "Hg (27.40 "Hg at 802m altitude)

Humidity: 25%

Dew Point: 48 °F

Location of SalamancaLocation

Past Weather in Salamanca — Graph

°F

Salamanca Temperature Yesterday

Maximum temperature yesterday: 90 °F (at 5:30 pm)
Minimum temperature yesterday: 55 °F (at 7:30 am)
Average temperature yesterday: 72 °F

High & Low Weather Summary for the Past Weeks

 TemperatureHumidityPressure
High99 °F (Jul 12, 4:30 pm)94% (Jul 4, 6:00 am)30.12 "Hg (Jul 4, 6:00 am)
Low48 °F (Jul 9, 6:00 am)16% (Jul 6, 8:30 pm)29.89 "Hg (Jul 8, 6:00 pm)
Average71 °F54%30.03 "Hg
* Reported Jul 1 2:00 pm — Jul 16 2:00 pm, Salamanca. Weather by CustomWeather, © 2019

Note: Actual official high and low records may vary slightly from our data, if they occured in-between our weather recording intervals... More about our weather records

Advertising

Salamanca Weather History for the Previous 24 Hours

Scroll right to see more
 ConditionsComfort  
Time TempWeatherWind HumidityBarometerVisibility
2:00 pm
Tue, Jul 16
86 °FPassing clouds.5 mph27%30.01 "HgN/A
1:30 pm84 °FPassing clouds.6 mph31%30.01 "HgN/A
1:00 pm84 °FPassing clouds.7 mph29%30.01 "HgN/A
12:30 pm81 °FSunny.8 mph30%30.01 "Hg10 mi
12:00 pm79 °FPassing clouds.7 mph34%30.04 "HgN/A
11:30 am77 °FPassing clouds.5 mph34%30.04 "HgN/A
11:00 am72 °FSunny.3 mph41%30.04 "Hg10 mi
10:30 am72 °FSunny.1 mph41%30.04 "Hg10 mi
10:00 am68 °FPassing clouds.5 mph46%30.04 "HgN/A
9:30 am68 °FPassing clouds.6 mph46%30.04 "HgN/A
9:00 am64 °FPassing clouds.7 mph49%30.04 "HgN/A
8:30 am63 °FPassing clouds.6 mph49%30.04 "HgN/A
8:00 am61 °FPassing clouds.6 mph52%30.01 "HgN/A
7:30 am59 °FPassing clouds.8 mph59%30.01 "HgN/A
7:00 am61 °FClear.7 mph59%30.01 "Hg10 mi
6:30 am61 °FRefreshingly cool.7 mph59%30.01 "HgN/A
6:00 am63 °FMild.9 mph59%30.01 "HgN/A
5:30 am63 °FMild.7 mph59%30.01 "HgN/A
5:00 am63 °FMild.7 mph64%30.01 "HgN/A
4:30 am64 °FMild.7 mph60%30.01 "HgN/A
4:00 am63 °FMild.5 mph64%30.04 "HgN/A
3:30 am63 °FLight rain. Clear.2 mph64%30.04 "HgN/A
3:00 am64 °FClear.3 mph60%30.04 "Hg10 mi
2:30 am66 °FClear.6 mph56%30.04 "Hg10 mi
2:00 am66 °FClear.5 mph52%30.04 "Hg10 mi
1:30 am68 °FClear.8 mph49%30.04 "Hg10 mi
1:00 am68 °FClear.8 mph53%30.04 "Hg10 mi
12:30 am68 °FMild.6 mph53%30.04 "HgN/A
12:00 am70 °FClear.7 mph50%30.04 "Hg10 mi
11:30 pm
Mon, Jul 15
72 °FClear.2 mph50%30.04 "Hg10 mi
11:00 pm72 °FLight rain. Clear.5 mph47%30.01 "HgN/A
10:30 pm73 °FClear.7 mph44%30.01 "Hg10 mi
10:00 pm75 °FMild.6 mph41%30.01 "HgN/A
9:30 pm77 °FPleasantly warm.8 mph39%30.01 "HgN/A
9:00 pm81 °FPassing clouds.6 mph34%29.98 "HgN/A
8:30 pm84 °FPassing clouds.6 mph31%29.98 "HgN/A
8:00 pm86 °FPassing clouds.7 mph27%29.98 "HgN/A
7:30 pm88 °FPassing clouds.7 mph24%29.98 "HgN/A
7:00 pm86 °FPassing clouds.6 mph24%29.98 "HgN/A
6:30 pm88 °FPassing clouds.3 mph21%29.98 "HgN/A
6:00 pm90 °FPassing clouds.5 mph18%30.01 "HgN/A
5:30 pm90 °FPassing clouds.5 mph18%30.01 "HgN/A
5:00 pm88 °FPassing clouds.5 mph19%30.01 "HgN/A
4:30 pm88 °FPassing clouds.3 mph19%30.01 "HgN/A
4:00 pm86 °FPassing clouds.5 mph24%30.01 "HgN/A
3:30 pm84 °FSunny.3 mph27%30.04 "Hg10 mi
3:00 pm84 °FSunny.3 mph31%30.04 "Hg10 mi
Weather by CustomWeather, © 2019

See weather overview

LIVE PARTIAL LUNAR ECLIPSE – Watch the eclipse as it happens